Location: Unspecified
(44.7308°N, 0.0000°E)
Time: 10:30:10
(UTC+00:00)

SL-16 DEB - Visible Passes

Search period start: 04 April 2026 00:00
Search period end: 14 April 2026 00:00
Orbit: 708 x 865 km, 71.0° (Epoch: 28 March)

Date Brightness Start Highest point End Pass type
(mag) Time Alt. Az. Time Alt. Az. Time Alt. Az.
4 Apr ? 00:21:32 13° NNW 00:21:32 13° NNW 00:22:47 10° NNW visible
4 Apr ? 22:09:09 13° NNE 22:09:09 13° NNE 22:09:37 10° NNE visible
4 Apr ? 23:49:44 16° NNW 23:49:44 16° NNW 23:51:30 10° N visible
5 Apr ? 21:37:16 11° NE 21:37:16 11° NE 21:37:33 10° NE visible
5 Apr ? 23:17:50 20° NNW 23:17:50 20° NNW 23:19:58 10° N visible
6 Apr ? 21:05:14 10° NE 21:05:14 10° NE 21:05:19 10° NE visible
6 Apr ? 22:45:48 25° N 22:45:48 25° N 22:48:18 10° N visible
7 Apr ? 22:13:35 33° N 22:13:35 33° N 22:16:31 10° NNE visible
8 Apr ? 21:41:05 47° N 21:41:05 47° N 21:44:39 10° NNE visible
8 Apr ? 23:21:36 11° WNW 23:23:24 13° NW 23:25:39 10° NNW visible
9 Apr ? 04:39:33 10° NNE 04:41:15 11° NE 04:42:58 10° ENE visible
9 Apr ? 21:08:09 69° ENE 21:08:09 69° ENE 21:12:40 10° NNE visible
9 Apr ? 22:48:37 13° W 22:51:07 17° NW 22:54:25 10° N visible
10 Apr ? 20:34:07 34° SSE 20:35:50 49° ESE 20:40:35 10° NE visible
10 Apr ? 22:14:56 10° WSW 22:18:54 24° NW 22:22:53 10° N visible
11 Apr ? 19:59:34 10° S 20:03:58 33° ESE 20:08:21 10° NE visible
11 Apr ? 21:42:17 10° WSW 21:46:43 32° NW 21:51:11 10° N visible
12 Apr ? 04:44:44 10° N 04:48:47 23° NE 04:52:56 10° ESE visible
12 Apr ? 19:28:22 10° SSE 19:32:08 22° ESE 19:35:55 10° NE visible
12 Apr ? 21:09:51 10° SW 21:14:36 46° WNW 21:19:22 10° NNE visible
13 Apr ? 04:13:12 10° N 04:16:32 17° NE 04:19:56 10° E visible
13 Apr ? 20:37:37 10° SW 20:42:32 68° WNW 20:47:28 10° NNE visible
13 Apr ? 22:24:30 10° WNW 22:26:20 12° NW 22:28:10 10° NNW visible
